DW7857 Weather Reports


time (UTC)temp
C
wind
direction
speed
KPH
gust
KPH
rain 1hr
cm
rain 24hr
cm
rain mn
cm
humidity
%
barometer
mb
20260502223603 11 165 1.6 3.2 0.00 0.99 0.99 100 1001.9
20260502222703 11 257 0.0 1.6 0.00 0.99 0.99 100 1002.1
20260502221803 11 315 0.0 1.6 0.00 0.99 0.99 100 1001.9
20260502220903 11 290 0.0 1.6 0.00 0.99 0.99 100 1002.2
20260502220003 11 155 0.0 3.2 0.00 0.99 0.99 100 1002.1
20260502215403 11 133 1.6 3.2 0.00 0.99 0.99 100 1002.3
20260502214712 11 128 0.0 3.2 0.00 0.99 0.99 100 1002.3
20260502213603 11 0 0.0 0.0 0.00 0.99 0.99 100 1002.1
20260502212703 11 0 0.0 0.0 0.00 0.99 0.99 100 1002.4
20260502212012 11 0 0.0 0.0 0.00 0.99 0.99 100 1002.2
20260502210903 11 113 0.0 1.6 0.00 0.99 0.99 100 1002.5
20260502210004 11 90 0.0 1.6 0.00 0.99 0.99 100 1002.0
20260502205403 11 315 1.6 3.2 0.00 0.99 0.99 100 1002.3
20260502204503 11 322 1.6 3.2 0.00 0.99 0.99 100 1002.4
20260502203603 11 315 1.6 3.2 0.00 0.99 0.99 100 1002.2
20260502202913 11 315 1.6 3.2 0.00 0.99 0.99 100 1002.4
20260502201803 11 328 1.6 3.2 0.00 0.99 0.99 100 1002.1
20260502200903 11 349 1.6 3.2 0.00 0.99 0.99 100 1002.0
20260502200003 11 63 1.6 3.2 0.00 0.99 0.99 100 1001.9
20260502195403 11 55 1.6 3.2 0.00 0.99 0.99 100 1002.0
20260502194503 11 38 1.6 3.2 0.00 0.99 0.99 100 1001.9
20260502193603 11 337 0.0 3.2 0.00 0.99 0.99 100 1002.4
20260502192703 11 315 0.0 3.2 0.00 0.99 0.99 100 1002.2
20260502192014 11 0 0.0 0.0 0.00 0.99 0.99 100 1002.4
20260502190903 11 0 0.0 0.0 0.00 0.99 0.99 100 1002.4
20260502190004 11 115 0.0 1.6 0.00 0.99 0.99 100 1002.6
20260502185614 11 87 1.6 3.2 0.00 0.99 0.99 100 1002.4
20260502184713 11 315 0.0 3.2 0.00 0.99 0.99 100 1002.5
20260502183603 11 59 0.0 3.2 0.03 0.99 0.99 100 1002.4
20260502182703 11 180 0.0 1.6 0.03 0.99 0.99 100 1002.5
20260502181803 11 90 0.0 1.6 0.03 0.99 0.99 100 1002.6
20260502180903 11 90 1.6 3.2 0.03 0.99 0.99 100 1002.6
20260502170214 11 245 1.6 3.2 0.15 0.97 0.97 97 1002.9
20260502163603 11 284 4.8 6.4 0.18 0.94 0.94 96 1003.2
20260502162703 11 30 3.2 6.4 0.13 0.86 0.86 96 1003.4
20260502161803 11 219 3.2 4.8 0.15 0.86 0.86 96 1003.4
20260502160903 11 213 1.6 3.2 0.13 0.81 0.81 96 1003.5
20260502151114 12 74 1.6 3.2 0.30 0.69 0.69 94 1003.6
20260502130214 12 197 3.2 4.8 0.03 0.03 0.03 76 1005.3
20260502123603 13 198 9.7 12.9 0.00 0.00 0.00 71 1005.9
20260502122914 14 214 8.0 12.9 0.00 0.00 0.00 72 1005.8
20260502121803 15 195 9.7 12.9 0.00 0.00 0.00 71 1005.9
20260502120903 15 188 4.8 8.0 0.00 0.00 0.00 71 1006.0
20260502115403 15 194 4.8 6.4 0.00 0.00 0.00 71 1006.2
20260502114503 15 209 6.4 8.0 0.00 0.00 0.00 70 1006.2
20260502113603 16 142 4.8 6.4 0.00 0.00 0.00 68 1006.5
20260502112703 16 125 4.8 6.4 0.00 0.00 0.00 66 1006.3
20260502111803 16 171 4.8 6.4 0.00 0.00 0.00 65 1006.6
20260502110903 16 242 4.8 8.0 0.00 0.00 0.00 64 1006.7
20260502110003 17 106 4.8 8.0 0.00 0.00 0.00 58 1006.9
20260502105403 17 66 3.2 6.4 0.00 0.00 0.00 57 1006.8
20260502104503 17 19 3.2 4.8 0.00 0.00 0.00 60 1006.9
20260502103603 17 248 4.8 6.4 0.00 0.00 0.00 63 1006.7
20260502102703 17 55 3.2 6.4 0.00 0.00 0.00 58 1007.1
20260502101803 17 146 3.2 4.8 0.00 0.00 0.00 61 1007.3
20260502100903 16 212 4.8 8.0 0.00 0.00 0.00 61 1007.6
20260502090903 16 182 3.2 4.8 0.00 0.00 0.00 65 1007.8
20260502071113 12 225 1.6 3.2 0.00 0.00 0.00 88 1008.7
20260502070003 12 225 0.0 1.6 0.00 0.00 0.00 90 1008.6
20260502065403 12 225 1.6 3.2 0.00 0.00 0.00 91 1008.6
20260502064503 12 169 1.6 3.2 0.00 0.00 0.00 92 1008.5
20260502063603 13 227 1.6 3.2 0.00 0.00 0.00 100 1008.6
20260502062703 12 170 1.6 3.2 0.00 0.00 0.00 100 1008.7
20260502061803 10 142 1.6 3.2 0.00 0.00 0.00 100 1008.6
20260502061112 9 131 1.6 3.2 0.00 0.00 0.00 100 1008.7
20260502060003 8 161 3.2 4.8 0.00 0.00 0.00 100 1008.6
20260502055403 8 177 3.2 4.8 0.00 0.00 0.00 100 1008.8
20260502054503 8 177 3.2 4.8 0.00 0.00 0.00 100 1009.1
20260502053603 8 188 4.8 6.4 0.00 0.00 0.00 100 1009.1
20260502052703 8 191 3.2 3.2 0.00 0.00 0.00 100 1009.1
20260502051803 8 192 1.6 3.2 0.00 0.00 0.00 100 1009.0
20260502050903 8 185 3.2 4.8 0.00 0.00 0.00 100 1009.0
20260502050004 8 189 3.2 4.8 0.00 0.00 0.00 100 1009.1
20260502045403 8 171 4.8 4.8 0.00 0.00 0.00 100 1009.0
20260502044504 8 179 4.8 6.4 0.00 0.00 0.00 97 1008.8
20260502043603 8 187 6.4 6.4 0.00 0.00 0.00 97 1009.0
20260502042703 8 188 3.2 4.8 0.00 0.00 0.00 100 1008.9
20260502041803 8 164 3.2 4.8 0.00 0.00 0.00 100 1008.9
20260502040903 8 90 1.6 3.2 0.00 0.00 0.00 97 1008.8
20260502040004 8 90 1.6 3.2 0.00 0.00 0.00 97 1008.8
20260502035403 8 90 0.0 1.6 0.00 0.00 0.00 97 1009.0